Printer-friendly version
Follow the MPC on Twitter Follow the MPC on Facebook The MPC blog
Minor Planet Center

MPEC 2007-V89 : 2007 VE184

The following Minor Planet Electronic Circular may be linked-to from your own Web pages, but must not otherwise be redistributed electronically.

A form allowing access to any MPEC is at the bottom of this page.


Read MPEC 2007-V88 Read MPEC 2007-V90


M.P.E.C. 2007-V89                                Issued 2007 Nov. 13, 14:11 UT

     The Minor Planet Electronic Circulars contain information on unusual
         minor planets and routine data on comets.  They are published
   on behalf of Commission 20 of the International Astronomical Union by the
          Minor Planet Center, Smithsonian Astrophysical Observatory,
                          Cambridge, MA 02138, U.S.A.

             Prepared using the Tamkin Foundation Computer Network

                              MPC@CFA.HARVARD.EDU
          URL http://www.cfa.harvard.edu/iau/mpc.html  ISSN 1523-6714

                                  2007 VE184

Observations:
     K07VI4E* C2007 11 11.17928 02 09 12.42 +16 25 13.8          20.9 V EV089G96
     K07VI4E  C2007 11 11.18549 02 09 16.70 +16 25 15.5          20.7 V EV089G96
     K07VI4E  C2007 11 11.19161 02 09 20.77 +16 25 17.5          21.8 V EV089G96
     K07VI4E  C2007 11 11.19769 02 09 24.94 +16 25 18.7          21.1 V EV089G96
     K07VI4E  C2007 11 11.26957 02 10 13.65 +16 25 32.1          21.3 V EV089G96
     K07VI4E  C2007 11 11.27227 02 10 15.42 +16 25 32.6          21.4 V EV089G96
     K07VI4E  C2007 11 11.27494 02 10 17.25 +16 25 32.7          19.9 V EV089G96
     K07VI4E  C2007 11 11.27764 02 10 19.09 +16 25 33.3          21.8 V EV089G96
     K07VI4E  C2007 11 12.22752 02 21 33.19 +16 26 49.3          21.2 V EV089G96
     K07VI4E  C2007 11 12.22839 02 21 33.76 +16 26 48.4          21.0 V EV089G96
     K07VI4E  C2007 11 12.22925 02 21 34.20 +16 26 48.0          21.2 V EV089G96
     K07VI4E  C2007 11 12.23009 02 21 34.84 +16 26 48.5          21.7 V EV089G96
     K07VI4E  C2007 11 13.23671 02 32 55.78 +16 25 53.9          20.9 V EV089G96
     K07VI4E  C2007 11 13.24418 02 33 00.36 +16 25 53.5          20.6 V EV089G96
     K07VI4E  C2007 11 13.25155 02 33 04.89 +16 25 52.8          20.8 V EV089G96
     K07VI4E  C2007 11 13.25893 02 33 09.46 +16 25 51.8          20.9 V EV089G96
     K07VI4E HC2007 11 13.42112 02 34 49.72 +16 25 19.1                 EV089291
     K07VI4E HC2007 11 13.42517 02 34 52.30 +16 25 19.3                 EV089291
     K07VI4E HC2007 11 13.42952 02 34 54.97 +16 25 19.6                 EV089291

Observer details:
291 LPL/Spacewatch II.  Observer J. V. Scotti.  1.8-m f/2.7 reflector + CCD.
G96 Mt. Lemmon Survey.  Observer R. A. Kowalski.  Measurers E. C. Beshore,
    A. Boattini, G. J. Garradd, A. R. Gibbs, A. D. Grauer, R. E. Hill,
    R. A. Kowalski, S. M. Larson, R. H. McNaught.  1.5-m reflector + CCD.

Orbital elements:
2007 VE184                                               Earth MOID = 0.0551 AU
Epoch 2007 Oct. 27.0 TT = JDT 2454400.5                 MPC
M 359.31156              (2000.0)            P               Q
n   0.33268285     Peri.  161.31230     +0.84006373     -0.54098072
a   2.0627619      Node   231.50551     +0.49091119     +0.78978265
e   0.4926716      Incl.    2.95940     +0.23086606     +0.28910764
P   2.96           H   26.0           G   0.15           U   6
Residuals in seconds of arc
071111 G96  0.0   0.2-    071111 G96  0.5+  0.1+    071113 G96  0.5+  0.0
071111 G96  0.6+  0.1-    071112 G96  0.2+  0.6+    071113 G96  0.9+  0.2-
071111 G96  0.9-  0.4+    071112 G96  0.3+  0.3-    071113 291  0.2-  1.3-
071111 G96  0.4-  0.2+    071112 G96  1.4-  0.8-    071113 291  0.4+  0.0
071111 G96  0.6+  0.0     071112 G96  0.0   0.3-    071113 291  0.6-  1.6+
071111 G96  0.2-  0.1+    071113 G96  1.0+  0.2-
071111 G96  0.2+  0.1-    071113 G96  0.6+  0.1+

Ephemeris:
2007 VE184               a,e,i = 2.06, 0.49, 3                   q = 1.0465
Date    TT    R. A. (2000) Decl.     Delta      r     Elong.  Phase     V
2007 11 06    01 02.02   +15 31.1    0.0646   1.051   155.8    22.7    21.2
2007 11 07    01 15.45   +15 48.4    0.0650   1.052   158.1    20.6    21.2
2007 11 08    01 28.75   +16 02.4    0.0657   1.053   160.4    18.4    21.1
2007 11 09    01 41.83   +16 13.1    0.0666   1.054   162.6    16.3    21.1
2007 11 10    01 54.60   +16 20.7    0.0677   1.056   164.7    14.3    21.1
2007 11 11    02 06.97   +16 25.3    0.0690   1.058   166.7    12.5    21.1
2007 11 12    02 18.88   +16 27.3    0.0706   1.059   168.5    10.7    21.0
2007 11 13    02 30.28   +16 26.9    0.0724   1.061   170.3     9.1    21.0
2007 11 14    02 41.13   +16 24.4    0.0743   1.063   171.8     7.6    21.0
2007 11 15    02 51.43   +16 20.3    0.0765   1.065   173.2     6.3    21.0
2007 11 16    03 01.15   +16 14.8    0.0788   1.068   174.3     5.3    21.1
2007 11 17    03 10.31   +16 08.2    0.0813   1.070   175.2     4.4    21.1
2007 11 18    03 18.92   +16 00.8    0.0840   1.072   175.8     3.9    21.1
2007 11 19    03 26.99   +15 52.9    0.0868   1.075   176.1     3.6    21.2
2007 11 20    03 34.54   +15 44.7    0.0897   1.078   176.0     3.6    21.3
2007 11 21    03 41.60   +15 36.3    0.0928   1.081   175.8     3.8    21.4
2007 11 22    03 48.19   +15 27.8    0.0960   1.083   175.5     4.1    21.5
2007 11 23    03 54.35   +15 19.5    0.0993   1.087   175.1     4.4    21.6
2007 11 24    04 00.09   +15 11.3    0.103    1.090   174.7     4.8    21.7
2007 11 25    04 05.45   +15 03.4    0.106    1.093   174.3     5.1    21.8
2007 11 26    04 10.45   +14 55.8    0.110    1.096   174.0     5.4    21.8

Timothy B. Spahr             (C) Copyright 2007 MPC           M.P.E.C. 2007-V89

Read MPEC 2007-V88 Read MPEC 2007-V90


MPEC number:

Enter an MPEC number in one of the following forms:

  • 1997-B01 (the full form)
  • J97B01 (the packed version of the full form)
  • B01 (the abbreviated form)

Valid HTML 4.01!